Location: Usti nad Labem
(50.6670°N, 14.0330°E)
Time: 22:00:59
(UTC+01:00)

Envisat - Pass Details

Date: 06 December 2020
Orbit: 764 x 766 km, 98.1° (Epoch: 15 January)

Event Time Altitude Azimuth Distance (km) Brightness Sun altitude
Rises 17:50:14 0° 193° (SSW) 3,221 6.6 -16.5°
Reaches altitude 10° 17:52:46 10° 204° (SSW) 2,300 6.0 -16.9°
Maximum altitude 17:57:15 31° 266° (W) 1,328 5.0 -17.6°
Drops below altitude 10° 18:01:45 10° 328° (NNW) 2,315 5.7 -18.3°
Sets 18:04:20 0° 339° (NNW) 3,246 6.4 -18.7°
